Simultaneous Nadir Overpasses (SNOs) Predictions

Prediction of SNOs between GOES-16 and NOAA-19 Satellite Orbit:

Table of predicted SNOs for the next 14.0 days since TLE Epoch: 2/6/2021
Index Date Time (GOES-16) GOES-16 Lat,Lon NOAA-19 Lat,Lon Distance(km) Time Diff (sec)
1 02/07/2021 23:42:57 -0.01, -75.17 -0.61, -77.86 307.02 80
2 02/08/2021 23:33:54 -0.00, -75.16 0.02, -74.99 19.23 80
3 02/09/2021 23:22:11 -0.00, -75.16 0.72, -72.14 345.61 80
4 02/12/2021 11:42:57 -0.00, -75.19 0.43, -77.05 211.67 80
5 02/13/2021 11:28:34 -0.00, -75.20 -0.21, -74.18 115.65 80
6 02/14/2021 11:16:51 -0.00, -75.20 -0.92, -71.33 443.12 80
7 02/15/2021 23:49:38 0.00, -75.19 -0.92, -79.16 453.70 80
8 02/16/2021 23:37:54 0.00, -75.20 -0.28, -76.29 125.89 80
9 02/17/2021 23:28:52 0.00, -75.21 0.42, -73.44 202.12 80
